World > North America > United States > Washington

Brinnon, Washington Regional Weather

Lat: 47.68N, Lon: 122.9W
Wx Zone: WAZ511Web Search

Helpful Tip: Abbreviated, 7 Day, 14 Day Forecasts. There is a weather forecast for every taste.

Feedback


°F Click to change Brinnon hourly weather to Imperial units.Click to change Brinnon hourly weather to Metric units. °C
Brinnon Weather Map
UTC Time: 4/11/2021, 03:09
Your Time:

Brinnon, WA Regional Weather

Expires:202104110300;;360725
ASUS46 KSEW 110220
RWRWA 

WASHINGTON REGIONAL WEATHER ROUNDUP
NATIONAL WEATHER SERVICE SEATTLE WA
700 PM PDT SAT APR 10 2021

NOTE:"FAIR" INDICATES FEW OR NO CLOUDS BELOW 12,000 FEET WITH NO 
SIGNIFICANT WEATHER AND/OR OBSTRUCTIONS TO VISIBILITY.


WAZ020-022-039-040-504-511-512-110300-
SOUTHWEST INTERIOR
  
CITY           SKY/WX    TMP DP  RH WIND       PRES   REMARKS
SHELTON        LGT RAIN  47  30  51 W15       30.25R                  
OLYMPIA        PTCLDY    48  27  44 W8        30.28R                  
CHEHALIS       FAIR      46  30  53 NW6       30.30S                  
KELSO          MOCLDY    47  30  51 VRB7G17   30.32R                  
VANCOUVER      MOCLDY    50  25  37 NW12      30.30R                  
SCAPPOOSE, OR  CLEAR     49  28  44 W8        30.30R                  
PORTLAND, OR   PTCLDY    50  27  40 NW13      30.30S                  
$$
 

SKY/WX - Weather  TMP - Temperature  DP - Dew Point  RH - Relative Humidity
WIND - Wind Direction/Speed PRES - Barometric Pressure VSB - Visibility
WCI - Wind Chill Index E13G22 Wind - East Wind 13 mph/Gusts of 22 mph